www.pogodaiklimat.ru
ПОГОДА в Элдорет аэропорту

Архив погоды в Элдорет аэропорту (Кения)

Время
(UTC), дата
15 17.05
18 17.05
21 17.05
00 18.05
03 18.05
06 18.05
09 18.05
12 18.05
15 18.05
18 18.05
21 18.05
00 19.05
03 19.05
06 19.05
09 19.05
12 19.05
15 19.05
18 19.05
21 19.05
00 20.05
03 20.05
06 20.05
09 20.05
12 20.05
15 20.05
18 20.05
21 20.05
00 21.05
03 21.05
06 21.05
09 21.05
12 21.05
15 21.05
18 21.05
21 21.05
00 22.05
03 22.05
06 22.05
09 22.05
12 22.05
15 22.05
18 22.05
21 22.05
00 23.05
03 23.05
06 23.05
09 23.05
12 23.05
15 23.05
18 23.05
21 23.05
00 24.05
03 24.05
06 24.05
09 24.05
12 24.05
Ветер
(напр.,м/с)
Видим. Явления Облачность Т
(С)
Тd
(С)
f
(%)
Тe
(С)
Тes
(С)
Комфортность P
(гПа)
Po
(гПа)
Тmin
(С)
Tmax
(С)
R
(мм)
R24
(мм)
S
(см)
З 2 30 км 4/4 570 м
[Cb cap Ci sp]
+21.1 +15.6 71 +24 +25 комфорт 1023.0 794.9
Ю 3 30 км 6/6 480 м
[Cb cap]
+17.3 +15.9 91 +17 +17 1026.0 796.8 +25.8
штиль 0 30 км 9/5 480 м
[Sc Ac und]
+16.7 +14.3 86 +17 +17 1026.0 797.0
ЮЗ 2 30 км 4/0
[Ac trans Ci fib]
+15.0 +13.1 88 +15 +15 1024.0 795.7
ЮЗ 1 30 км 3/0
[Ci fib]
+13.0 +11.6 94 +13 +13 1025.0 796.3
ЮВ 3 30 км 3/1 540 м
[Cb cap Ci sp]
+19.9 +14.8 72 +22 +27 комфорт 1027.0 797.7 +12.6
нст 2 30 км 6/6 660 м
[Cu med, cong Ci fib]
+23.7 +12.2 48 +25 +34 комфорт 1026.0 797.1
В 4 30 км 4/4 720 м
[Cb cap]
+25.6 +9.1 35 +26 +32 жарко 1023.0 794.2
З 3 30 км 4/3 600 м
[Cb cap Ci ing]
+20.9 +15.7 72 +25 +25 комфорт 1023.0 794.7
Ю 2 30 км 6/1 500 м
[Cb cap Ci ing]
+16.5 +14.9 90 +17 +17 1025.0 796.5 +26.4
нст 1 30 км 8/3 480 м
[Sc Ac trans]
+16.0 +14.5 94 +16 +16 1025.0 796.5
ЮЗ 2 30 км 9/1 450 м
[Sc Ac As]
+16.3 +14.7 90 +16 +16 1024.0 795.1
Ю 2 30 км 8/0
[Ac trans Ci fib]
+14.8 +13.3 91 +15 +15 1024.0 795.7
нст 1 30 км 8/1 540 м
[Cu med, cong Ac trans Ci fib]
+18.8 +14.2 75 +21 +25 комфорт 1026.0 797.1 +13.9
нст 2 30 км 8/6 630 м
[Cb cap Ac trans Ci fib]
+23.3 +12.8 52 +26 +32 жарко 1025.0 796.3
ЮВ 4 30 км 5/4 660 м
[Cb cap Ac trans Ci fib]
+25.7 +7.3 31 +26 +30 жарко 1022.0 794.0
З 2 30 км 6/4 630 м
[Cb cap Ac cuf Ci ing]
+22.0 +14.0 60 +25 +25 комфорт 1022.0 794.1
нст 1 30 км зарница 6/1 500 м
[Cb cap Ac trans Ci fib]
+17.3 +13.9 80 +18 +18 1025.0 796.2 +26.3
ЮВ 3 30 км 9/4 450 м
[Sc Ac trans]
+16.8 +13.9 82 +17 +17 1026.0 797.0
ЮВ 2 30 км 9/3 450 м
[Sc Ac trans]
+15.7 +13.2 82 +16 +16 1025.0 796.2
Ю 2 30 км 6/1 450 м
[Cb cap Ac trans Ci fib]
+12.8 +11.2 90 +12 +12 1024.0 795.9
В 2 30 км 8/1 600 м
[Cu med, cong Ac lent Ci fib]
+20.0 +12.2 61 +23 +26 комфорт 1027.0 797.6 +12.6
С 3 30 км 6/5 700 м
[Cb calv Ac trans Ci fib]
+23.8 +11.7 47 +26 +34 жарко 1026.0 797.4
СЗ 4 30 км 9/8 660 м
[Cb cap Ac cuf Ci fib]
+22.5 +13.5 57 +26 +28 жарко 1023.0 794.8
ЮЗ 2 8000 м гроза, ливневой дождь 9/3 450 м
[Cb cap Ac As]
+15.7 +13.9 88 +16 +16 1024.0 795.7
Ю 3 30 км {гроза, дождь} 9/1 540 м
[Cb cap Ac trans]
+15.4 +14.1 94 +14 +14 1026.0 797.4 +24.2 35
нст 1 30 км 9/1 540 м
[Cb cap Ac trans]
+15.7 +14.2 91 +16 +16 1027.0 797.6
Ю 2 30 км 9/0
[Ac trans]
+15.3 +14.0 92 +15 +15 1025.0 796.7
штиль 0 30 км 9/5 480 м
[Sc Ac trans]
+15.1 +13.9 94 +15 +15 1026.0 797.4
В 4 30 км 9/4 500 м
[Sc Ac trans]
+16.7 +14.5 88 +17 +18 1028.0 798.4 +14.6 35
С 3 30 км 9/4 600 м
[Cb calv Ac trans]
+21.4 +14.9 66 +24 +30 комфорт 1027.0 797.8
СЗ 3 30 км 6/6 700 м
[Cb cap Ac trans Ci fib]
+24.3 +13.7 54 +26 +29 жарко 1025.0 795.9
Ю 4 30 км 9/4 500 м
[Cb cap Ac As]
+17.1 +14.2 83 +17 +17 1025.0 796.3
Ю 2 30 км 9/4 480 м
[Cb cap Ac As]
+16.8 +13.4 80 +17 +17 1027.0 797.7 +24.4 0.2
Ю 3 30 км 5/3 480 м
[Sc Ac trans Ci fib]
+15.8 +13.8 88 +16 +16 1028.0 798.5
ЮВ 4 30 км 8/1 450 м
[Sc Ac trans]
+14.6 +13.4 93 +13 +13 1025.0 796.3
нст 1 30 км 8/1 450 м
[Sc Ac trans]
+14.2 +12.1 87 +15 +15 1026.0 796.9
Ю 2 30 км 9/1 600 м
[Cu med, cong Ac trans Ci fib]
+18.5 +13.9 75 +20 +23 1027.0 797.6 +13.9 0.2
Ю 2 30 км 9/5 700 м
[Cb cap Ac trans]
+23.7 +13.2 52 +26 +31 жарко 1026.0 797.2
З 2 20 км гроза, ливневой дождь 9/8 630 м
[Cb cap Ac As]
+17.7 +14.0 79 +18 +20 1024.0 795.6 2
штиль 0 30 км 9/5 500 м
[Cb cap Ac cuf]
+19.5 +14.7 74 +21 +21 комфорт 1024.0 795.6
Ю 1 30 км зарница 10/1 540 м
[Cb cap Ac As]
+17.5 +14.6 83 +19 +19 1025.0 796.7 +24.3 2
нст 1 30 км 8/0
[Ac trans]
+15.9 +13.8 87 +17 +17 1026.0 797.1
Ю 2 30 км 5/0
[Ac trans Ci fib]
+14.3 +13.4 94 +14 +14 1025.0 796.0
Ю 1 30 км 4/0
[Ac trans Ci fib]
+12.9 +11.5 94 +13 +13 1025.0 796.2
ЮЗ 2 30 км 3/1 540 м
[Cu med, cong Ac trans Ci fib]
+18.6 +13.3 71 +20 +26 1026.0 797.4 +12.4 2
СВ 2 30 км 5/5 700 м
[Cb calv Ac trans Ci fib]
+24.2 +13.4 51 +26 +36 жарко 1025.0 796.6
З 3 15 км гроза, ливневой дождь 9/9 600 м
[Cb cap]
+20.9 +16.1 74 +25 +26 комфорт 1023.0 794.6 1
З 2 25 км {дождь} 9/5 540 м
[Cb cap Ac As]
+18.1 +15.0 82 +19 +19 1023.0 794.9
ЮВ 2 25 км 9/5 480 м
[Cb cap Ac As]
+16.1 +14.6 91 +16 +16 1025.0 796.3 +24.4 25
ЮВ 2 25 км 9/4 480 м
[Cb cap Ac As]
+15.8 +14.3 91 +16 +16 1026.0 796.9
СВ 2 20 км {дождь} 9/5 450 м
[Sc Ac As]
+15.7 +14.7 94 +16 +16 1024.0 795.8 1
С 3 6000 м слаб. морось 10/6 240 м
[St Ac As]
+15.5 +14.7 95 +15 +15 1025.0 796.6
СВ 2 30 км 9/6 480 м
[Sc Ac und]
+17.1 +15.1 88 +17 +19 1027.0 798.1 +15.2 26 26.0
С 2 30 км 8/4 600 м
[Cu med, cong Ac trans]
+21.6 +13.8 60 +25 +31 комфорт 1027.0 797.7
ЮЗ 2 2000 м гроза, ливневой дождь 9/9 540 м
[Cb cap Ac As]
+16.6 +14.4 87 +17 +18 1024.0 795.7 8
Местоположение метеостанции Элдорет аэропорт (Кения): широта 0.40 долгота 35.23 высота над уровнем моря 2116 м.
В архиве по умолчанию представлена погода в Элдорет аэропорту за последнюю неделю. Архивные данные за месяц целиком и за предыдущие месяцы, начиная с января 2011 года, Вы можете получить, выбрав интересующий диапазон дат из раскрывающегося списка и нажав кнопку "Найти!".
*Определитесь, кто Вы:
Внимание! Время в таблицах - всемирное. Для получения местного времени необходимо прибавить поправку, которая равна 3 ч.
Некоторые строки с данными для отдельных станций могут быть выделены курсивом. Это означает, что фактические данные отсутствуют по различным причинам, а приведенные значения являются расчетными модельными данными для данного пункта наблюдений.
Смотрите также архив погоды в соседних городах и на ближайших метеорологических станциях:
Партнеры нашего сайта:      
Пояснения к столбцам:
  • Ветер - указаны скорость ветра в м/с - средняя за 10 мин, порывы в срок и между сроками (в фигурных скобках) и направление, откуда дует ветер: С - северный,
  • СВ - северо-восточный, В - восточный, ЮВ - юго-восточный, Ю - южный, ЮЗ - юго-западный, З - западный, СЗ - северо-западный.
  • Видимость - горизонтальная дальность видимости в метрах или километрах. При видимости от 1 до 10 км при отсутствии осадков обычно наблюдается дымка, при ухудшении видимости до 1 км и менее - туман. В сухую погоду видимость может ухудшаться дымом, пылью или мглою.
  • Явления - указаны атмосферные явления, наблюдавшиеся в срок или в последний час перед сроком; фигурными скобками обозначены явления, наблюдавшиеся между сроками (за 1-3 часа до срока); квадратными скобками обозначены град или гололедные отложения с указанием их диаметра в мм.
  • Облачность - указаны через наклонную черту общая и нижняя облачность в баллах и высота нижней границы облаков в метрах; квадратными скобками обозначены формы облаков: Ci - перистые, Cs - перисто-слоистые, Cc - перисто-кучевые, Ac - высококучевые, As - высокослоистые, Sc - слоисто-кучевые, Ns - слоисто-дождевые, Cu - кучевые, Cb - кучево-дождевые. Подробнее классификацию облаков см. в Атласе облаков (PDF).
  • T - Температура воздуха - температура, измеренная на высоте 2 м над землей.
  • Td - Температура точки росы - температура, при понижении до которой содержащийся в воздухе водяной пар достигнет насыщения.
  • f - Относительная влажность воздуха - влажноcть воздуха, измеренная на высоте 2 м над землей.
  • Te - Эффективная температура - температура, которую ощущает одетый по сезону человек в тени. Характеристика душности погоды. При расчете учитывается влияние влажности воздуха и скорости ветра на теплоощущения человека.
  • Tes - Эффективная температура на солнце - температура, которую ощущает человек, с поправкой на солнечный нагрев. Характеристика знойности погоды. Зависит от высоты солнца над горизонтом, облачности и скорости ветра. Ночью, в пасмурную погоду, а также при ветре 12 м/с и более поправка равна нулю.
  • P - Атмосферное давление - приведенное к уровню моря атмосферное давление.
  • Po - Атмосферное давление - измеренное на уровне метеостанции атмосферное давление.
  • Tmin - Минимальная температура - минимум температуры воздуха на высоте 2 м над землей.
  • Tmax - Максимальная температура - максимум температуры воздуха на высоте 2 м над землей.
  • R - Количество осадков - Количество выпавших осадков за период времени, мм. При наведении курсора мыши на число - период времени, за который выпало указанное количество осадков.
  • R24 - Количество осадков - Количество выпавших осадков за 24 часа, мм.
  • S - Снежный покров - Высота снежного покрова, см. При наведении курсора мыши на число - состояние снежного покрова и степень покрытия местности в баллах.